Regional Weather Roundup
Issued by NWS

Home | Current Version | Previous Version | Text Only | Print | Product List | Glossary On
Versions: 1 2 3 4 5 6 7 8 9 10 11 12 13 14 15 16 17 18 19 20 21 22 23 24 25 26 27 28 29 30 31 32 33 34 35 36 37 38 39 40 41 42 43 44 45 46 47 48 49 50
000
ASUS42 KKEY 262110
RWRKEY

FLORIDA REGIONAL WEATHER ROUNDUP FOR THE FLORIDA KEYS
NATIONAL WEATHER SERVICE KEY WEST FLORIDA
400 PM EST WED NOV 26 2014

...SOUTH FLORIDA AND THE KEYS...

CITY           SKY/WX    TMP DP  RH WIND       PRES   REMARKS
FORT MYERS     CLOUDY    61  47  59 N10       30.13F
SW REGIONAL AP CLOUDY    59  50  72 N10       30.14S
NAPLES         CLOUDY    62  45  53 N10       30.13S
MIAMI          PTSUNNY   65  56  72 NW9G20    30.11R
WEST KENDALL   CLOUDY    65  56  72 N18G24    30.11R
HOMESTEAD      MOSUNNY   64  57  77 NW16      30.10R
MARATHON       CLOUDY    69  63  81 N17G29    30.10R
BOCA CHICA NAS CLOUDY    68  61  78 N24G33    30.10R
KEY WEST INTL  CLOUDY    69  61  75 N20G28    30.10R

...INTERNATIONAL WEATHER...

CITY           SKY/WX    TMP DP  RH WIND       PRES   REMARKS
NASSAU BAHAMAS MOSUNNY   84  79  84 S8        30.02S HX  96
CANCUN MEXICO  CLOUDY    75  63  64 N6        30.11S
COZUMEL MEXICO CLOUDY    73  63  68 N13G26    30.10S

ADJACENT COASTAL WATERS...

STATION/POSITION TIME  SKY/WX   TEMP    WIND        PRES    WAVE
                                AIR SEA DIR/SP/G            HT/PER
                 (UTC)          (F)     (DEG/KT/KT) (MB)    (FT/S)
PULASKI SHOAL LI 2000            70     360/ 22/ 23 1019.5R
SAND KEY         2041            69     360/ 26/ 31 1019.0R
SOMBRERO KEY     2100            68     350/ 26/ 30 1019.4R
LONG KEY         1958            69 79  340/ 18/ 21 1018.9R
MOLASSES REEF    2100            68 78  340/ 22/ 25 1018.0R
FOWEY ROCKS      2000            69 79  320/ 19/ 21 1018.4R
Buoy 42080       NOT AVBL

$$


USA.gov is the U.S. government's official web portal to all federal, state and local government web resources and services.